User: anonymous   Login
Location: Unspecified
(0.0000°N, 0.0000°E)
Time: 17:07:32
(UTC+00:00)
Language:

ExactView-1 - Orbit

View from above orbital plane
View from above orbital plane
View from above satellite
View from above satellite

Ground track
Ground track

The orbit data is extracted from the following two-line orbital elements,

1 38709U 12039C   19081.40930470  .00000006  00000-0  23618-4 0  9998
2 38709  99.1432  92.3090 0009976 205.6090 154.4606 14.23987657346374
Epoch (UTC): 22 March 2019 09:49:23
Eccentricity: 0.0009976
inclination: 99.1432°
perigee height: 805 km
apogee height: 819 km
right ascension of ascending node: 92.3090°
argument of perigee: 205.6090°
revolutions per day: 14.23987657
mean anomaly at epoch: 154.4606°
orbit number at epoch: 34637

The dashed part of the orbit path shows where the satellite is in the earth's shadow,  

DLR